Location: Unspecified
(0.0000°N, 0.0000°E)
Time: 02:19:58
(UTC+00:00)

Envisat - Pass Details

Date: 24 October 2020
Orbit: 764 x 766 km, 98.1° (Epoch: 25 October)

Event Time Altitude Azimuth Distance (km) Brightness Sun altitude
Rises 18:14:06 0° 188° (S) 3,230 6.5 -7.3°
Reaches altitude 10° 18:16:41 10° 199° (SSW) 2,301 5.9 -8.0°
Maximum altitude 18:21:00 29° 258° (WSW) 1,382 5.3 -9.0°
Drops below altitude 10° 18:25:20 10° 317° (NW) 2,292 5.9 -10.1°
Sets 18:27:54 0° 328° (NNW) 3,215 6.5 -10.7°
